[[{"header":{"parameterUnit":"m.s-1","parameterCategory":1,"la1":30.2991,"la2":30.254,"lo1":-89.0895,"lo2":-89.0444,"dy":0.0017,"dx":0.0017,"nx":28,"ny":28,"refTime":"2023-09-29T09:00:00:Z","depth":0,"parameterNumber":2,"parameterNumberName":"U-component_of_WINDS"},"data":[0,0,0,0,0,0,0,0,0,0,0,0,0,0,0,0,0,0,0,0,0,0,0,0,0,0,0,0,0,0,0,0,0,0,0,0,0,0,0,0,0,0,0,0,0,0,0,0,0,0,0,0,0,0,0,0,0,0,-4.4207,-4.4207,0,-4.4204,-4.4204,-4.4204,-4.4121,-4.4119,-4.4117,-4.4115,-4.4112,-4.4114,-4.4116,0,0,0,0,0,0,0,0,0,0,0,0,0,-4.4142,-4.4143,-4.4207,-4.4207,-4.4207,-4.4204,-4.4204,-4.4204,-4.4122,-4.4119,-4.4116,-4.4114,-4.4112,-4.4114,-4.4116,0,0,0,0,0,0,0,0,0,0,0,0,0,-4.4158,-4.4144,-4.4207,-4.4165,-4.4162,-4.4204,-4.4204,-4.4204,-4.4122,-4.4119,-4.4116,-4.4113,-4.4111,-4.4114,-4.4116,-4.4199,0,0,-4.4125,-4.4127,0,0,0,0,0,0,0,0,-4.4157,-4.416,-4.4172,-4.4168,-4.4164,-4.416,-4.418,-4.4203,-4.4123,-4.4137,-4.4115,-4.4111,-4.4131,-4.4132,-4.4138,-4.4199,-4.4199,-4.4126,-4.4127,-4.4129,-4.4129,0,0,0,0,0,0,0,-4.4156,-4.416,-4.4206,-4.4172,-4.4167,-4.4147,-4.4146,-4.4184,-4.4152,-4.4136,-4.413,-4.413,-4.4128,-4.4136,-4.4138,-4.4199,-4.4126,-4.4128,-4.413,-4.4131,-4.4329,-4.4333,0,0,0,0,0,0,-4.416,-4.4159,-4.4206,-4.4206,-4.4153,-4.4151,-4.415,-4.4165,-4.4151,-4.4146,-4.4133,-4.4127,-4.4132,-4.4134,-4.4137,-4.4235,-4.4129,-4.4131,-4.4133,-4.4326,-4.433,-4.4334,0,0,0,0,0,0,-4.4159,-4.4165,-4.4206,-4.4181,-4.4185,-4.4156,-4.4173,-4.4166,-4.4174,-4.415,-4.4143,-4.4147,-4.413,-4.4133,-4.4185,-4.4234,-4.4133,-4.4135,-4.4322,-4.4327,-4.4332,-4.443,0,0,0,0,0,0,-4.4158,-4.4165,-4.4196,-4.4182,-4.4186,-4.4254,-4.4176,-4.4168,-4.4179,-4.417,-4.4161,-4.4156,-4.4128,-4.4181,-4.4188,-4.4236,-4.4138,-4.4317,-4.4324,-4.433,-4.4422,-4.4438,-4.4451,0,0,0,0,0,-4.4156,-4.4223,-4.4198,-4.4204,-4.4224,-4.4257,-4.4259,-4.4225,-4.4183,-4.4214,-4.4199,-4.4156,-4.4227,-4.4187,-4.4194,-4.4244,-4.4314,-4.4322,-4.433,-4.4416,-4.4435,-4.4451,0,0,0,0,0,0,-4.4243,-4.4221,-4.4192,-4.4257,-4.426,-4.4243,-4.4281,-4.4246,-4.426,-4.4251,-4.4208,-4.4207,-4.4266,-4.4259,-4.4215,-4.4324,-4.4263,-4.4273,-4.4326,-4.4344,-4.4358,-4.436,-4.414,0,0,0,0,0,-4.427,-4.4298,-4.4277,-4.4336,-4.4339,-4.431,-4.4323,-4.4296,-4.4297,-4.4297,-4.4286,-4.4288,-4.4311,-4.4327,-4.4346,-4.4421,-4.4419,-4.4458,-4.4473,-4.4485,-4.4494,-4.4536,-4.4554,-4.436,-4.436,-4.436,0,0,-4.4325,-4.4317,-4.4337,-4.4354,-4.4352,-4.4383,-4.4311,-4.4346,-4.4369,-4.4303,-4.4351,-4.4343,-4.4343,-4.4407,-4.4435,-4.4404,-4.4548,-4.4495,-4.4505,-4.4508,-4.4546,-4.4564,-4.4581,-4.4365,-4.4364,-4.4364,0,0,-4.4443,-4.4439,-4.4489,-4.4489,-4.4489,-4.4469,-4.4481,-4.447,-4.4462,-4.451,-4.4462,-4.4488,-4.4528,-4.4531,-4.4537,-4.4658,-4.4621,-4.4666,-4.4742,-4.4783,-4.4799,-4.4812,-4.4858,-4.4874,-4.4675,-4.4675,-4.4675,0,-4.4513,-4.4557,-4.4519,-4.4558,-4.4568,-4.451,-4.4561,-4.4563,-4.4569,-4.4577,-4.4542,-4.4592,-4.4588,-4.4653,-4.4683,-4.4689,-4.4703,-4.4667,-4.4799,-4.4812,-4.4824,-4.4867,-4.4884,-4.4681,-4.468,-4.4679,-4.4679,0,-4.4644,-4.4676,-4.4716,-4.4725,-4.4738,-4.4783,-4.4753,-4.4772,-4.4745,-4.4729,-4.478,-4.4773,-4.4791,-4.4804,-4.4777,-4.4867,-4.4848,-4.4807,-4.4745,-4.4849,-4.4889,-4.4905,-4.4689,-4.4687,-4.4685,-4.4684,0,0,-4.4816,-4.4804,-4.482,-4.4824,-4.4819,-4.4844,-4.4887,-4.4905,-4.4923,-4.4929,-4.4965,-4.5001,-4.4964,-4.4971,-4.4944,-4.498,-4.5079,-4.4935,-4.4934,-4.4964,-4.518,-4.5213,-4.5232,-4.5054,-4.5057,-4.5059,-4.5181,0,-4.4932,-4.5005,-4.4973,-4.505,-4.508,-4.5026,-4.5064,-4.5066,-4.5053,-4.5077,-4.5062,-4.5089,-4.5037,-4.5041,-4.5074,-4.5061,-4.5123,-4.5051,-4.5089,-4.5091,-4.5093,-4.5253,-4.5287,-4.5402,-4.5196,-4.5199,-4.52,0,-4.5077,-4.5091,-4.5171,-4.5163,-4.5175,-4.5209,-4.5225,-4.5248,-4.525,-4.5238,-4.5247,-4.5213,-4.5256,-4.5194,-4.5253,-4.5205,-4.5218,-4.5214,-4.5218,-4.5222,-4.5153,-4.5263,-4.5438,-4.5456,-4.5224,-4.5222,-4.522,0,-4.5198,-4.5236,-4.529,-4.5294,-4.5286,-4.5312,-4.531,-4.5308,-4.5322,-4.5335,-4.5344,-4.5362,-4.5373,-4.5388,-4.536,-4.5317,-4.5424,-4.5359,-4.5417,-4.5418,-4.5444,-4.5443,-4.5626,-4.5449,-4.5449,-4.5448,-4.5448,0,-4.5332,-4.5384,-4.5345,-4.5378,-4.5435,-4.5397,-4.5455,-4.5447,-4.5446,-4.5478,-4.5431,-4.5461,-4.5421,-4.5448,-4.5426,-4.5481,-4.5485,-4.5478,-4.5472,-4.5483,-4.5485,-4.5493,-4.5485,-4.5453,-4.5452,-4.5451,-4.545,0,-4.5478,-4.5453,-4.5508,-4.5496,-4.5495,-4.5538,-4.5528,-4.5559,-4.5542,-4.5583,-4.559,-4.5566,-4.5595,-4.5568,-4.5596,-4.5581,-4.5655,-4.5636,-4.5655,-4.565,-4.5711,-4.5707,-4.5907,-4.5933,-4.5738,-4.574,-4.5741,0,-4.5566,-4.5605,-4.5598,-4.5616,-4.5617,-4.5646,-4.566,-4.5625,-4.5642,-4.5648,-4.5679,-4.5704,-4.5723,-4.5773,-4.5758,-4.578,-4.5763,-4.5831,-4.5766,-4.5777,-4.5767,-4.5766,-4.5771,-4.5846,-4.5848,-4.585,-4.5851,0,-4.5726,-4.5712,-4.5735,-4.5754,-4.5773,-4.5786,-4.5795,-4.5813,-4.5777,-4.5798,-4.5828,-4.5843,-4.5872,-4.5899,-4.5917,-4.5915,-4.5879,-4.5872,-4.5887,-4.59,-4.5911,-4.5909,-4.5694,-4.5868,-4.5866,-4.5865,-4.5864,-4.5863,-4.5847,-4.588,-4.5881,-4.5908,-4.5912,-4.5923,-4.5952,-4.594,-4.5964,-4.5986,-4.5964,-4.6001,-4.6003,-4.6023,-4.6026,-4.6055,-4.6026,-4.6047,-4.6053,-4.606,-4.607,-4.5905,-4.6057,-4.6057,-4.6056,-4.6056,-4.6056,0,-4.6007,-4.6005,-4.603,-4.6046,-4.6068,-4.6031,-4.604,-4.6062,-4.6095,-4.61,-4.612,-4.6156,-4.6182,-4.617,-4.6193,-4.6219,-4.6203,-4.6227,-4.6226,-4.6227,-4.6093,-4.6079,-4.624,-4.624,-4.624,-4.624,-4.6239,-4.6239,-4.6093,-4.6148,-4.6135,-4.6192,-4.6189,-4.6226,-4.6235,-4.6245,-4.6249,-4.6291,-4.6313,-4.6305,-4.6304,-4.6327,-4.635,-4.6345,-4.6357,-4.6388,-4.6378,-4.6253,-4.6235,-4.6218,-4.6205,-4.639,-4.639,-4.6509,-4.651,-4.6511]},{"header":{"parameterUnit":"m.s-1","parameterCategory":1,"la1":30.2991,"la2":30.254,"lo1":-89.0895,"lo2":-89.0444,"dy":0.0017,"dx":0.0017,"nx":28,"ny":28,"refTime":"2023-09-29T09:00:00:Z","depth":0,"parameterNumber":3,"parameterNumberName":"V-component_of_WINDS"},"data":[0,0,0,0,0,0,0,0,0,0,0,0,0,0,0,0,0,0,0,0,0,0,0,0,0,0,0,0,0,0,0,0,0,0,0,0,0,0,0,0,0,0,0,0,0,0,0,0,0,0,0,0,0,0,0,0,0,0,-2.4579,-2.4579,0,-2.4587,-2.4587,-2.4587,-2.4543,-2.4542,-2.4541,-2.454,-2.4548,-2.4549,-2.4551,0,0,0,0,0,0,0,0,0,0,0,0,0,-2.4526,-2.4527,-2.4579,-2.4579,-2.4579,-2.4587,-2.4587,-2.4587,-2.4544,-2.4542,-2.4541,-2.4539,-2.4547,-2.4549,-2.4551,0,0,0,0,0,0,0,0,0,0,0,0,0,-2.4543,-2.4528,-2.4579,-2.4559,-2.4557,-2.4587,-2.4587,-2.4587,-2.4544,-2.4542,-2.454,-2.4538,-2.4547,-2.4549,-2.4551,-2.4601,0,0,-2.4557,-2.4558,0,0,0,0,0,0,0,0,-2.4542,-2.4545,-2.4562,-2.456,-2.4558,-2.4562,-2.4571,-2.4592,-2.4544,-2.4549,-2.454,-2.4538,-2.4554,-2.4556,-2.4561,-2.4602,-2.4602,-2.4558,-2.4559,-2.456,-2.456,0,0,0,0,0,0,0,-2.4541,-2.4545,-2.4582,-2.4562,-2.456,-2.4549,-2.4549,-2.4575,-2.4562,-2.4548,-2.4545,-2.4547,-2.4553,-2.4559,-2.4561,-2.4602,-2.4557,-2.4559,-2.4561,-2.4561,-2.4684,-2.4685,0,0,0,0,0,0,-2.4543,-2.4544,-2.4582,-2.4583,-2.4545,-2.4551,-2.4552,-2.4563,-2.4562,-2.456,-2.4548,-2.4545,-2.4557,-2.4559,-2.4561,-2.462,-2.456,-2.4562,-2.4563,-2.4682,-2.4684,-2.4686,0,0,0,0,0,0,-2.4542,-2.4547,-2.4582,-2.4562,-2.4566,-2.4554,-2.4567,-2.4564,-2.457,-2.4562,-2.4559,-2.4557,-2.4555,-2.4558,-2.4591,-2.4619,-2.4563,-2.4564,-2.4679,-2.4682,-2.4685,-2.4738,0,0,0,0,0,0,-2.454,-2.4546,-2.4566,-2.4563,-2.4567,-2.4612,-2.4569,-2.4566,-2.4574,-2.4569,-2.4569,-2.4567,-2.4554,-2.4589,-2.4594,-2.4621,-2.4566,-2.4677,-2.4681,-2.4684,-2.4733,-2.4742,-2.475,0,0,0,0,0,-2.4539,-2.4581,-2.4567,-2.4572,-2.4591,-2.4614,-2.4616,-2.46,-2.4576,-2.4596,-2.459,-2.4567,-2.4615,-2.4592,-2.4598,-2.4626,-2.4675,-2.468,-2.4684,-2.473,-2.474,-2.4749,0,0,0,0,0,0,-2.4587,-2.458,-2.4565,-2.4607,-2.4611,-2.4607,-2.463,-2.4612,-2.4623,-2.4618,-2.4598,-2.4598,-2.4635,-2.4634,-2.4608,-2.4675,-2.4641,-2.4647,-2.4674,-2.4684,-2.4692,-2.4692,-2.4568,0,0,0,0,0,-2.4603,-2.4622,-2.4614,-2.4653,-2.4655,-2.4643,-2.4652,-2.4639,-2.4643,-2.4644,-2.4641,-2.4646,-2.4661,-2.4673,-2.4687,-2.4733,-2.4732,-2.4755,-2.4763,-2.477,-2.4775,-2.4799,-2.4809,-2.4701,-2.4701,-2.4701,0,0,-2.4635,-2.4634,-2.4647,-2.4662,-2.4664,-2.4684,-2.4645,-2.4668,-2.4683,-2.4648,-2.4679,-2.4677,-2.468,-2.472,-2.4737,-2.472,-2.4805,-2.4775,-2.4781,-2.4783,-2.4804,-2.4815,-2.4824,-2.4704,-2.4703,-2.4703,0,0,-2.4705,-2.4706,-2.4737,-2.474,-2.4743,-2.4734,-2.4741,-2.4739,-2.4736,-2.4767,-2.4741,-2.4758,-2.4786,-2.479,-2.4795,-2.4865,-2.4845,-2.487,-2.4912,-2.4936,-2.4944,-2.4952,-2.4977,-2.4986,-2.4875,-2.4875,-2.4875,0,-2.4745,-2.4775,-2.4756,-2.4781,-2.4788,-2.4757,-2.4788,-2.4791,-2.4799,-2.4805,-2.4785,-2.482,-2.482,-2.486,-2.4877,-2.4882,-2.489,-2.487,-2.4945,-2.4952,-2.4959,-2.4982,-2.4991,-2.4878,-2.4878,-2.4878,-2.4877,0,-2.4824,-2.4845,-2.487,-2.4878,-2.4887,-2.4916,-2.4901,-2.4913,-2.4898,-2.4891,-2.4923,-2.4922,-2.4935,-2.4943,-2.493,-2.4981,-2.497,-2.4948,-2.4914,-2.4972,-2.4994,-2.5003,-2.4883,-2.4882,-2.4881,-2.488,0,0,-2.4926,-2.4922,-2.4931,-2.4934,-2.4935,-2.4951,-2.4977,-2.4989,-2.5,-2.5006,-2.5028,-2.5052,-2.5031,-2.5037,-2.5023,-2.5044,-2.5099,-2.5019,-2.5019,-2.5034,-2.5155,-2.5172,-2.5183,-2.5085,-2.5087,-2.5088,-2.5155,0,-2.4994,-2.5039,-2.5022,-2.5068,-2.5087,-2.5057,-2.508,-2.5082,-2.5076,-2.5091,-2.5084,-2.5101,-2.5072,-2.5076,-2.5095,-2.5088,-2.5123,-2.5083,-2.5105,-2.5106,-2.5106,-2.5194,-2.5213,-2.5276,-2.5163,-2.5165,-2.5166,0,-2.508,-2.5089,-2.5137,-2.5134,-2.5141,-2.5162,-2.5172,-2.5186,-2.5188,-2.5182,-2.5189,-2.517,-2.5195,-2.5161,-2.5195,-2.5168,-2.5176,-2.5174,-2.5176,-2.5178,-2.514,-2.5199,-2.5296,-2.5306,-2.5179,-2.5178,-2.5177,0,-2.515,-2.5174,-2.5206,-2.5209,-2.5206,-2.5221,-2.522,-2.522,-2.5229,-2.5237,-2.5242,-2.5254,-2.526,-2.5269,-2.5254,-2.523,-2.5291,-2.5255,-2.5286,-2.5287,-2.5301,-2.5301,-2.5401,-2.5305,-2.5305,-2.5305,-2.5305,0,-2.5229,-2.5259,-2.5237,-2.5257,-2.529,-2.5269,-2.5302,-2.5298,-2.5298,-2.5317,-2.5291,-2.5308,-2.5287,-2.5303,-2.5291,-2.5321,-2.5324,-2.532,-2.5317,-2.5323,-2.5323,-2.5328,-2.5323,-2.5308,-2.5307,-2.5307,-2.5306,0,-2.5313,-2.5299,-2.5331,-2.5325,-2.5324,-2.5349,-2.5343,-2.5361,-2.5352,-2.5375,-2.5379,-2.5366,-2.5383,-2.5368,-2.5385,-2.5377,-2.5417,-2.5407,-2.5416,-2.5414,-2.5446,-2.5443,-2.5554,-2.5567,-2.5463,-2.5464,-2.5464,0,-2.5364,-2.5387,-2.5382,-2.5392,-2.5393,-2.541,-2.5418,-2.5398,-2.5408,-2.5411,-2.5429,-2.5443,-2.5453,-2.5481,-2.5473,-2.5485,-2.5476,-2.5513,-2.5477,-2.5482,-2.5476,-2.5476,-2.5478,-2.5521,-2.5522,-2.5523,-2.5524,0,-2.5457,-2.5448,-2.5461,-2.5471,-2.5481,-2.5489,-2.5494,-2.5503,-2.5483,-2.5495,-2.5512,-2.552,-2.5536,-2.555,-2.5559,-2.5558,-2.5538,-2.5535,-2.5543,-2.555,-2.5554,-2.5553,-2.5437,-2.5533,-2.5532,-2.5531,-2.5531,-2.5531,-2.5526,-2.5545,-2.5544,-2.5559,-2.556,-2.5565,-2.5582,-2.5574,-2.5588,-2.5599,-2.5586,-2.5607,-2.5607,-2.5617,-2.5619,-2.5634,-2.5618,-2.563,-2.5633,-2.5636,-2.5641,-2.5551,-2.5636,-2.5635,-2.5635,-2.5635,-2.5635,0,-2.5618,-2.5615,-2.5629,-2.5637,-2.5648,-2.5627,-2.5631,-2.5642,-2.566,-2.5662,-2.5673,-2.5691,-2.5705,-2.5697,-2.5709,-2.5723,-2.5714,-2.5727,-2.5726,-2.5726,-2.5654,-2.5646,-2.5734,-2.5734,-2.5734,-2.5734,-2.5734,-2.5734,-2.5667,-2.5697,-2.5688,-2.5718,-2.5716,-2.5735,-2.5739,-2.5744,-2.5745,-2.5767,-2.5778,-2.5773,-2.5771,-2.5782,-2.5793,-2.5791,-2.5796,-2.5813,-2.5807,-2.5741,-2.5731,-2.5722,-2.5714,-2.5814,-2.5814,-2.5877,-2.5878,-2.5878]}]]